Location: Lourdes
(43.1000°N, 0.0500°W)
Time: 06:31:00
(UTC+00:00)

NOSS 3-2 (C) - Pass Details

Date: 30 November 2020
Orbit: 789 x 1424 km, 63.4° (Epoch: 09 January)

Event Time Altitude Azimuth Distance (km) Brightness Sun altitude
Rises 18:50:50 0° 202° (SSW) 3,305 6.7 -25.7°
Reaches altitude 10° 18:53:10 10° 199° (SSW) 2,414 5.8 -26.1°
Enters shadow 18:57:48 55° 156° (SSE) 1,039 3.4 -27.0°
